[[{"header":{"parameterUnit":"m.s-1","parameterCategory":2,"la1":30.2992,"la2":30.254,"lo1":-89.0895,"lo2":-89.0443,"dy":0.0025,"dx":0.0025,"nx":19,"ny":19,"refTime":"2026-04-29T03:00:00:Z","depth":"0","parameterNumber":2,"parameterNumberName":"U-component_of_CURRENTS"},"data":[0,0,0,-0.089,-0.0889,-0.0987,-0.0988,-0.1247,-0.1249,0,0,0,0,0,0,0,0,0,0,0,-0.09,-0.09,-0.089,-0.0889,-0.0987,-0.0988,-0.1247,-0.1249,0,0,0,0,0,0,0,0,0,0,0,-0.09,-0.09,-0.09,-0.0889,-0.0986,-0.0988,-0.1246,-0.116,0,0,0,0,0,0,0,0,0,0,-0.1057,-0.0984,-0.09,-0.09,-0.0888,-0.0986,-0.0989,-0.1156,-0.1166,-0.1213,0,-0.1198,0,-0.1173,-0.1261,-0.1262,0,0,0,-0.0976,-0.0975,-0.1009,-0.0899,-0.0888,-0.0985,-0.0967,-0.1161,-0.1172,-0.1227,-0.1201,-0.1208,-0.1177,-0.1262,-0.1263,-0.1311,-0.131,0,0,-0.0971,-0.0925,-0.1,-0.1014,-0.0876,-0.0963,-0.0969,-0.1167,-0.1161,-0.1202,-0.1213,-0.1181,-0.1263,-0.1265,-0.1311,-0.131,0,0,0,-0.0896,-0.092,-0.0949,-0.1006,-0.0981,-0.0964,-0.0971,-0.1154,-0.1164,-0.1215,-0.1184,-0.1265,-0.1267,-0.1312,-0.1311,-0.1234,0,0,0,-0.0897,-0.087,-0.0946,-0.0921,-0.0975,-0.1036,-0.0953,-0.1153,-0.1171,-0.1183,-0.1265,-0.1269,-0.1313,-0.1312,-0.1238,-0.1261,0,0,0,-0.0902,-0.087,-0.0872,-0.0918,-0.0916,-0.1032,-0.1058,-0.1158,-0.1149,-0.1262,-0.1269,-0.1314,-0.1312,-0.1242,-0.1265,-0.1231,0,0,0,-0.0871,-0.0822,-0.0871,-0.0805,-0.0914,-0.0895,-0.1056,-0.1053,-0.1122,-0.1265,-0.1313,-0.1311,-0.1243,-0.1268,-0.1233,-0.1022,-0.0992,0,0,-0.0791,-0.0811,-0.0774,-0.0817,-0.0798,-0.089,-0.0897,-0.1046,-0.1124,-0.1276,-0.1277,-0.1237,-0.1266,-0.1231,-0.0904,-0.0878,0,0,0,-0.0736,-0.0723,-0.0722,-0.0717,-0.073,-0.0817,-0.0894,-0.0954,-0.1081,-0.1139,-0.1216,-0.1238,-0.1219,-0.1095,-0.1074,-0.0895,-0.1302,-0.1302,-0.1302,-0.0636,-0.0653,-0.0647,-0.0682,-0.0675,-0.075,-0.084,-0.0947,-0.0992,-0.1,-0.1157,-0.1063,-0.0926,-0.0909,-0.0725,-0.1107,-0.1107,-0.1107,-0.1107,-0.0585,-0.0608,-0.0649,-0.0669,-0.0747,-0.0769,-0.0853,-0.0897,-0.101,-0.1041,-0.1024,-0.0998,-0.0881,-0.0693,-0.1101,-0.1102,-0.1103,-0.1103,-0.1104,-0.054,-0.0581,-0.0613,-0.0705,-0.0783,-0.0844,-0.0882,-0.0941,-0.0979,-0.0999,-0.0853,-0.0852,-0.0707,-0.0957,-0.0957,-0.0957,-0.0957,-0.0957,-0.0957,-0.0544,-0.0579,-0.0684,-0.0773,-0.0837,-0.0886,-0.0888,-0.0873,-0.0799,-0.079,-0.0787,-0.062,-0.1019,-0.1049,-0.0955,-0.0956,-0.0956,-0.0956,-0.0956,-0.056,-0.0629,-0.0723,-0.081,-0.0937,-0.0852,-0.0839,-0.0635,-0.0613,-0.0536,-0.0306,-0.0668,-0.0688,-0.0702,-0.0723,-0.0553,-0.0553,-0.0553,-0.0553,-0.0631,-0.0662,-0.0823,-0.0912,-0.0953,-0.0854,-0.0577,-0.0376,-0.0148,0.0003,-0.0041,0.003,0.0006,0.0026,-0.0005,-0.0012,0.0335,0.0336,0.0337,-0.0749,-0.0761,-0.0871,-0.095,-0.0963,-0.078,-0.0413,-0.0029,0.031,0.0381,0.0168,0.0131,0.0234,0.018,0.0204,0.0147,0.0128,0,0]},{"header":{"parameterUnit":"m.s-1","parameterCategory":2,"la1":30.2992,"la2":30.254,"lo1":-89.0895,"lo2":-89.0443,"dy":0.0025,"dx":0.0025,"nx":19,"ny":19,"refTime":"2026-04-29T03:00:00:Z","depth":"0","parameterNumber":3,"parameterNumberName":"V-component_of_CURRENTS"},"data":[0,0,0,-0.1058,-0.106,-0.125,-0.1252,-0.1602,-0.1605,0,0,0,0,0,0,0,0,0,0,0,-0.1016,-0.1017,-0.1058,-0.1061,-0.125,-0.1252,-0.1601,-0.1605,0,0,0,0,0,0,0,0,0,0,0,-0.1016,-0.1016,-0.1017,-0.1061,-0.125,-0.1252,-0.1601,-0.1444,0,0,0,0,0,0,0,0,0,0,-0.1252,-0.1149,-0.1016,-0.1017,-0.1062,-0.1249,-0.1252,-0.1436,-0.1454,-0.1529,0,-0.1539,0,-0.1548,-0.1625,-0.1627,0,0,0,-0.1116,-0.1134,-0.1199,-0.1017,-0.1063,-0.1249,-0.118,-0.1446,-0.1466,-0.1553,-0.1544,-0.1556,-0.1554,-0.1627,-0.1629,-0.1813,-0.1813,0,0,-0.1105,-0.1049,-0.1184,-0.1211,-0.1089,-0.1174,-0.1185,-0.1457,-0.1463,-0.1545,-0.1563,-0.156,-0.163,-0.1632,-0.1813,-0.1813,0,0,0,-0.1038,-0.1041,-0.1099,-0.1198,-0.1206,-0.1178,-0.1191,-0.1451,-0.1474,-0.1567,-0.1564,-0.1631,-0.1635,-0.1814,-0.1813,-0.1741,0,0,0,-0.1034,-0.0998,-0.1093,-0.1062,-0.1199,-0.1306,-0.1179,-0.1456,-0.1486,-0.1562,-0.1631,-0.1638,-0.1814,-0.1813,-0.1743,-0.1694,0,0,0,-0.1011,-0.0995,-0.1013,-0.1058,-0.1114,-0.1302,-0.1342,-0.1463,-0.1482,-0.1627,-0.1639,-0.1814,-0.1813,-0.1746,-0.1699,-0.1609,0,0,0,-0.0956,-0.0971,-0.1011,-0.1036,-0.1111,-0.1213,-0.134,-0.1423,-0.1529,-0.1633,-0.1814,-0.1813,-0.1746,-0.1702,-0.1613,-0.1479,-0.145,0,0,-0.0948,-0.0968,-0.0989,-0.1029,-0.1157,-0.1192,-0.1307,-0.1482,-0.1551,-0.1743,-0.1748,-0.1742,-0.17,-0.161,-0.1436,-0.1408,0,0,0,-0.097,-0.1001,-0.1047,-0.112,-0.1194,-0.1273,-0.1401,-0.1449,-0.1581,-0.1601,-0.1747,-0.1723,-0.1668,-0.1596,-0.1574,-0.1612,-0.181,-0.181,-0.181,-0.0916,-0.0995,-0.1081,-0.1191,-0.123,-0.134,-0.1399,-0.1485,-0.1574,-0.1574,-0.1668,-0.1555,-0.148,-0.1461,-0.1503,-0.1683,-0.1682,-0.1682,-0.1682,-0.096,-0.1014,-0.111,-0.1231,-0.1303,-0.1359,-0.1419,-0.1457,-0.1523,-0.1586,-0.1536,-0.153,-0.1432,-0.1486,-0.1677,-0.1678,-0.1679,-0.1679,-0.168,-0.092,-0.0969,-0.1062,-0.1209,-0.1269,-0.1338,-0.1284,-0.1363,-0.1423,-0.1418,-0.131,-0.1311,-0.135,-0.1374,-0.1374,-0.1373,-0.1373,-0.1372,-0.1372,-0.0848,-0.0948,-0.1046,-0.1187,-0.1202,-0.1187,-0.1173,-0.1153,-0.1149,-0.12,-0.1199,-0.1305,-0.1461,-0.1464,-0.1362,-0.1364,-0.1365,-0.1366,-0.1367,-0.0846,-0.0885,-0.0965,-0.1024,-0.1077,-0.0934,-0.0937,-0.0834,-0.0849,-0.0827,-0.0999,-0.1083,-0.1082,-0.11,-0.1094,-0.0902,-0.0902,-0.0902,-0.0902,-0.0819,-0.0867,-0.0918,-0.0924,-0.0893,-0.0812,-0.0555,-0.0512,-0.0652,-0.072,-0.0833,-0.0898,-0.0915,-0.0911,-0.0933,-0.0928,-0.0699,-0.0699,-0.0699,-0.0863,-0.0845,-0.0847,-0.0872,-0.0811,-0.0635,-0.0332,-0.0171,-0.045,-0.0704,-0.091,-0.0919,-0.1037,-0.1061,-0.1081,-0.1109,-0.1111,0,0]}],[{"header":{"parameterUnit":"m.s-1","parameterCategory":2,"la1":30.2992,"la2":30.254,"lo1":-89.0895,"lo2":-89.0443,"dy":0.0025,"dx":0.0025,"nx":19,"ny":19,"refTime":"2026-04-29T03:00:00:Z","depth":"2","parameterNumber":2,"parameterNumberName":"U-component_of_CURRENTS"},"data":[0,0,0,-0.042,-0.0419,-0.0239,-0.0237,0.0032,0.0034,0,0,0,0,0,0,0,0,0,0,0,-0.0438,-0.0437,-0.0421,-0.0419,-0.0239,-0.0237,0.0032,0.0034,0,0,0,0,0,0,0,0,0,0,0,-0.0438,-0.0437,-0.0436,-0.0419,-0.024,-0.0237,0.0031,-0.0096,0,0,0,0,0,0,0,0,0,0,-0.0268,-0.0317,-0.0437,-0.0436,-0.0418,-0.024,-0.0237,-0.0102,-0.0088,-0.0062,0,-0.005,0,-0.0055,0.0046,0.0046,0,0,0,-0.0343,-0.0328,-0.0303,-0.0436,-0.0418,-0.0241,-0.0299,-0.0094,-0.0078,-0.0044,-0.0047,-0.0038,-0.0051,0.0047,0.0048,-0.0035,-0.0038,0,0,-0.0353,-0.0375,-0.0314,-0.0294,-0.0392,-0.0305,-0.0295,-0.0084,-0.0064,-0.0046,-0.0032,-0.0046,0.0048,0.0049,-0.0033,-0.0036,0,0,0,-0.0433,-0.0382,-0.0359,-0.0303,-0.0304,-0.0302,-0.0289,-0.007,-0.007,-0.003,-0.0043,0.0049,0.0051,-0.0031,-0.0034,-0.0001,0,0,0,-0.0435,-0.0435,-0.0364,-0.037,-0.0309,-0.0195,-0.028,-0.0082,-0.0061,-0.0044,0.0049,0.0053,-0.0028,-0.0033,0.0004,-0.005,0,0,0,-0.0442,-0.0436,-0.0426,-0.0373,-0.0337,-0.0199,-0.0181,-0.0076,-0.0073,0.0046,0.0053,-0.0027,-0.0032,0.0008,-0.0043,0.0074,0,0,0,-0.0452,-0.0402,-0.0425,-0.0366,-0.034,-0.028,-0.0182,-0.0135,-0.0051,0.005,-0.0029,-0.0034,0.0009,-0.0038,0.0076,0.0168,0.0168,0,0,-0.0391,-0.0395,-0.0359,-0.0377,-0.029,-0.0298,-0.024,-0.0117,-0.0129,-0.0075,-0.0075,0.0002,-0.0042,0.0075,-0.0142,-0.0131,0,0,0,-0.034,-0.0314,-0.0292,-0.025,-0.0234,-0.0236,-0.0164,-0.0182,-0.0174,-0.012,-0.0118,-0.0151,-0.0073,-0.002,-0.0015,-0.0059,-0.0059,-0.0058,-0.0058,-0.0263,-0.0244,-0.017,-0.0153,-0.0166,-0.0198,-0.0178,-0.0221,-0.0202,-0.0282,-0.0207,-0.0233,-0.0186,-0.0178,-0.0272,-0.0272,-0.0272,-0.0272,-0.0272,-0.0188,-0.0158,-0.0139,-0.0124,-0.0166,-0.0215,-0.0226,-0.0247,-0.0243,-0.0329,-0.0247,-0.0101,-0.0169,-0.0271,-0.0271,-0.0271,-0.0271,-0.0272,-0.0272,-0.0166,-0.0151,-0.0161,-0.0187,-0.0228,-0.0308,-0.0305,-0.0348,-0.0286,-0.0238,-0.0138,-0.0137,-0.011,-0.0193,-0.0193,-0.0192,-0.0192,-0.0192,-0.0192,-0.0206,-0.016,-0.0266,-0.0285,-0.0343,-0.0422,-0.043,-0.0379,-0.0283,-0.0177,-0.0173,-0.0206,-0.0208,-0.011,-0.0188,-0.0189,-0.019,-0.019,-0.019,-0.0244,-0.0315,-0.0408,-0.0488,-0.0526,-0.0467,-0.0433,-0.025,-0.0167,-0.0047,-0.0049,-0.0053,-0.0037,-0.0043,0.0054,0.0024,0.0024,0.0024,0.0024,-0.0336,-0.0362,-0.0524,-0.0583,-0.0599,-0.0469,-0.0247,-0.0013,0.0111,0.0206,0.0198,0.0191,0.0179,0.0206,0.0194,0.0296,0.0329,0.0329,0.033,-0.0426,-0.0463,-0.0573,-0.061,-0.0598,-0.0423,-0.0142,0.025,0.0438,0.0342,0.0251,0.0044,0.0012,0.0001,0.0022,0.0011,0.0166,0,0]},{"header":{"parameterUnit":"m.s-1","parameterCategory":2,"la1":30.2992,"la2":30.254,"lo1":-89.0895,"lo2":-89.0443,"dy":0.0025,"dx":0.0025,"nx":19,"ny":19,"refTime":"2026-04-29T03:00:00:Z","depth":"2","parameterNumber":3,"parameterNumberName":"V-component_of_CURRENTS"},"data":[0,0,0,-0.0532,-0.0532,-0.0416,-0.0414,-0.0281,-0.0281,0,0,0,0,0,0,0,0,0,0,0,-0.0496,-0.0496,-0.0531,-0.0532,-0.0416,-0.0414,-0.0281,-0.0281,0,0,0,0,0,0,0,0,0,0,0,-0.0496,-0.0496,-0.0495,-0.0533,-0.0416,-0.0414,-0.0281,-0.0341,0,0,0,0,0,0,0,0,0,0,-0.0441,-0.0453,-0.0496,-0.0495,-0.0533,-0.0417,-0.0414,-0.0342,-0.0337,-0.0371,0,-0.0364,0,-0.0402,-0.0282,-0.0282,0,0,0,-0.043,-0.0457,-0.045,-0.0495,-0.0533,-0.0417,-0.044,-0.0338,-0.0333,-0.0365,-0.0362,-0.036,-0.04,-0.0282,-0.0282,-0.053,-0.0532,0,0,-0.0437,-0.0448,-0.0454,-0.0447,-0.0521,-0.0444,-0.0438,-0.0334,-0.0323,-0.0362,-0.0358,-0.0397,-0.0282,-0.0283,-0.0527,-0.053,0,0,0,-0.0524,-0.0452,-0.0443,-0.045,-0.0474,-0.0444,-0.0435,-0.0324,-0.0329,-0.0357,-0.0396,-0.0283,-0.0283,-0.0524,-0.0528,-0.0478,0,0,0,-0.0523,-0.0512,-0.0447,-0.0448,-0.0477,-0.0406,-0.0428,-0.0331,-0.0325,-0.0396,-0.0283,-0.0283,-0.0521,-0.0527,-0.0473,-0.043,0,0,0,-0.0498,-0.0511,-0.0505,-0.045,-0.0457,-0.0408,-0.04,-0.0328,-0.0356,-0.0282,-0.0283,-0.052,-0.0526,-0.0468,-0.0426,-0.0271,0,0,0,-0.0498,-0.0477,-0.0505,-0.0501,-0.046,-0.0504,-0.04,-0.0442,-0.0405,-0.0283,-0.0522,-0.0528,-0.0467,-0.0423,-0.0272,-0.0289,-0.0288,0,0,-0.0472,-0.0474,-0.0475,-0.0501,-0.0526,-0.0512,-0.0551,-0.0484,-0.0509,-0.0532,-0.0536,-0.0474,-0.0425,-0.0271,-0.0649,-0.0636,0,0,0,-0.0469,-0.0467,-0.0482,-0.0503,-0.0553,-0.0566,-0.0573,-0.0593,-0.0614,-0.0537,-0.0617,-0.059,-0.0489,-0.0509,-0.0503,-0.0558,-0.0557,-0.0556,-0.0556,-0.0397,-0.0436,-0.0421,-0.0476,-0.0546,-0.0643,-0.0589,-0.0639,-0.0709,-0.0786,-0.0653,-0.0653,-0.0689,-0.068,-0.0789,-0.0789,-0.0788,-0.0788,-0.0788,-0.0379,-0.0367,-0.0403,-0.0471,-0.0536,-0.0644,-0.0641,-0.067,-0.0627,-0.078,-0.0682,-0.0593,-0.0668,-0.0787,-0.0787,-0.0788,-0.0788,-0.0788,-0.0788,-0.0349,-0.0338,-0.041,-0.0496,-0.0522,-0.064,-0.0556,-0.0625,-0.0588,-0.0499,-0.0525,-0.0526,-0.0459,-0.0508,-0.0507,-0.0506,-0.0506,-0.0505,-0.0505,-0.0337,-0.0345,-0.0458,-0.0514,-0.0532,-0.0564,-0.0581,-0.0536,-0.0542,-0.0485,-0.0484,-0.0556,-0.0565,-0.0447,-0.0493,-0.0495,-0.0496,-0.0497,-0.0498,-0.0357,-0.0432,-0.0516,-0.058,-0.0529,-0.0419,-0.0433,-0.0393,-0.0354,-0.0285,-0.0387,-0.0394,-0.037,-0.0381,-0.0264,-0.0257,-0.0257,-0.0257,-0.0257,-0.0376,-0.0426,-0.0528,-0.0515,-0.0445,-0.0317,-0.0185,-0.0123,-0.0166,-0.0151,-0.0155,-0.0271,-0.0285,-0.0262,-0.0276,-0.0158,-0.0123,-0.0123,-0.0122,-0.0411,-0.0442,-0.047,-0.0469,-0.0368,-0.0206,-0.0039,0.0106,0.0015,-0.011,-0.0066,-0.0261,-0.0454,-0.0466,-0.0452,-0.0466,-0.0285,0,0]}],[{"header":{"parameterUnit":"m.s-1","parameterCategory":2,"la1":30.2992,"la2":30.254,"lo1":-89.0895,"lo2":-89.0443,"dy":0.0025,"dx":0.0025,"nx":19,"ny":19,"refTime":"2026-04-29T03:00:00:Z","depth":"4","parameterNumber":2,"parameterNumberName":"U-component_of_CURRENTS"},"data":[0,0,0,0.0153,0.0153,0.019,0.019,0.0236,0.0236,0,0,0,0,0,0,0,0,0,0,0,0.0133,0.0133,0.0153,0.0153,0.019,0.019,0.0235,0.0236,0,0,0,0,0,0,0,0,0,0,0,0.0133,0.0133,0.0133,0.0153,0.019,0.019,0.0235,0.0209,0,0,0,0,0,0,0,0,0,0,0.0175,0.0133,0.0133,0.0133,0.0154,0.019,0.019,0.0208,0.0211,0.0217,0,0.0214,0,0.0227,0.0239,0.0239,0,0,0,0.0158,0.013,0.0162,0.0133,0.0154,0.019,0.0175,0.021,0.0213,0.0221,0.0215,0.0217,0.0228,0.0239,0.0239,0.031,0.031,0,0,0.0156,0.0121,0.016,0.0164,0.0152,0.0173,0.0176,0.0212,0.0197,0.0215,0.0218,0.0229,0.0239,0.0239,0.0309,0.031,0,0,0,0.0147,0.0119,0.015,0.0162,0.0169,0.0174,0.0177,0.0195,0.0211,0.0219,0.0229,0.0239,0.024,0.0309,0.031,0.0372,0,0,0,0.0146,0.0115,0.0149,0.0126,0.0168,0.0177,0.0159,0.0209,0.0213,0.0229,0.0239,0.024,0.0308,0.0309,0.0369,0.0377,0,0,0,0.0133,0.0113,0.0119,0.0125,0.0142,0.0177,0.0195,0.021,0.022,0.0239,0.024,0.0308,0.0309,0.0366,0.0373,0.0426,0,0,0,0.0096,0.0094,0.0117,0.0118,0.0142,0.0186,0.0195,0.0218,0.0234,0.0239,0.0308,0.031,0.0365,0.0371,0.0423,0.0284,0,0,0,0.008,0.009,0.0097,0.012,0.016,0.0182,0.0229,0.025,0.0257,0.0296,0.0298,0.037,0.0373,0.0425,0.0353,0,0,0,0,0.0085,0.0088,0.0105,0.0127,0.0169,0.0222,0.0241,0.0288,0.0348,0.0271,0.0376,0.0375,0.0407,0.0318,0.0315,0.0315,0.0315,0.0315,0.0315,0.003,0.0069,0.0083,0.0135,0.0172,0.0249,0.0304,0.0366,0.037,0.0421,0.0432,0.0517,0.0426,0.0447,0.0447,0.0448,0.0448,0.0448,0.0448,0.0026,0.0041,0.0081,0.0122,0.0193,0.025,0.0379,0.0421,0.0525,0.0511,0.054,0.0395,0.0455,0.0453,0.0452,0.0452,0.0451,0.0451,0.045,0.0005,0.0018,0.0041,0.0111,0.0185,0.0288,0.0377,0.0484,0.0569,0.0603,0.0522,0.0561,0.055,0.0635,0.0635,0.0635,0.0635,0.0636,0.0636,-0.0013,0.0003,0.0051,0.0121,0.0174,0.0264,0.0408,0.0461,0.0574,0.0566,0.0629,0.058,0.0574,0.056,0.064,0.064,0.0639,0.0639,0.0638,-0.0011,0.0016,0.0085,0.0135,0.0231,0.0269,0.0369,0.044,0.0513,0.0538,0.055,0.0553,0.0516,0.0512,0.0494,0.0558,0.0556,0.0555,0,0.0007,0.002,0.0135,0.0209,0.0264,0.0292,0.0313,0.0364,0.0473,0.047,0.0559,0.0574,0.0574,0.0532,0.0526,0.0504,0,0,0,0.0036,0.0075,0.0164,0.024,0.0298,0.0295,0.0319,0.0343,0.0423,0.0423,0.0518,0.0528,0.053,0.0654,0.0605,0.0598,0.0573,0,0]},{"header":{"parameterUnit":"m.s-1","parameterCategory":2,"la1":30.2992,"la2":30.254,"lo1":-89.0895,"lo2":-89.0443,"dy":0.0025,"dx":0.0025,"nx":19,"ny":19,"refTime":"2026-04-29T03:00:00:Z","depth":"4","parameterNumber":3,"parameterNumberName":"V-component_of_CURRENTS"},"data":[0,0,0,0.0254,0.0255,0.0325,0.0325,0.0427,0.0428,0,0,0,0,0,0,0,0,0,0,0,0.0247,0.0248,0.0253,0.0255,0.0325,0.0325,0.0427,0.0428,0,0,0,0,0,0,0,0,0,0,0,0.0246,0.0247,0.0249,0.0256,0.0325,0.0325,0.0427,0.037,0,0,0,0,0,0,0,0,0,0,0.03,0.0246,0.0247,0.0249,0.0256,0.0325,0.0325,0.0367,0.0373,0.0401,0,0.0433,0,0.043,0.0436,0.0436,0,0,0,0.025,0.024,0.0306,0.0249,0.0257,0.0325,0.0292,0.037,0.0378,0.041,0.0434,0.0437,0.0431,0.0437,0.0437,0.0624,0.0625,0,0,0.0246,0.0209,0.0301,0.0312,0.0304,0.029,0.0294,0.0374,0.0366,0.0434,0.0439,0.0433,0.0437,0.0438,0.0623,0.0625,0,0,0,0.0239,0.0206,0.0269,0.0308,0.0318,0.0292,0.0297,0.0362,0.0398,0.044,0.0434,0.0438,0.0439,0.0622,0.0624,0.0525,0,0,0,0.0236,0.0203,0.0268,0.0239,0.0317,0.0326,0.0282,0.0393,0.0401,0.0434,0.0438,0.044,0.0621,0.0623,0.0525,0.0468,0,0,0,0.0238,0.0201,0.023,0.0238,0.0275,0.0325,0.0362,0.0394,0.0398,0.0436,0.0441,0.062,0.0622,0.0525,0.047,0.0412,0,0,0,0.017,0.0219,0.0229,0.0294,0.0275,0.0396,0.0362,0.0426,0.0467,0.0439,0.0621,0.0624,0.0525,0.0471,0.0414,0.0376,0,0,0,0.02,0.022,0.0271,0.0284,0.0406,0.0384,0.0471,0.0498,0.052,0.0591,0.0595,0.0525,0.047,0.0412,0.0548,0,0,0,0,0.0262,0.0311,0.0351,0.0422,0.0495,0.0493,0.0549,0.0542,0.0561,0.0557,0.0612,0.0582,0.0546,0.0536,0.0638,0.0637,0.0637,0.0636,0.0636,0.0264,0.0342,0.0418,0.0516,0.0562,0.0598,0.0575,0.0584,0.0633,0.0625,0.0565,0.0543,0.054,0.0649,0.0649,0.0648,0.0648,0.0648,0.0648,0.036,0.0411,0.0457,0.0548,0.0553,0.0598,0.0583,0.0567,0.0528,0.0574,0.0544,0.0516,0.064,0.0642,0.0643,0.0644,0.0644,0.0645,0.0645,0.0392,0.0406,0.0458,0.0514,0.0501,0.0522,0.0425,0.0434,0.0437,0.0388,0.0395,0.0481,0.0412,0.0381,0.038,0.038,0.0379,0.0379,0.0379,0.0371,0.042,0.04,0.0454,0.0403,0.0352,0.0318,0.0275,0.0305,0.0292,0.0366,0.0453,0.0462,0.0401,0.0371,0.0373,0.0374,0.0374,0.0375,0.0391,0.0349,0.0325,0.0278,0.0197,0.0172,0.0169,0.0155,0.0101,0.01,0.0238,0.0247,0.0268,0.0281,0.0213,0.0126,0.0126,0.0125,0,0.0318,0.033,0.0205,0.0097,0.0011,0.0041,-0.002,-0.0012,0.005,0.0057,0.0082,0.0236,0.0244,0.027,0.028,0.0202,0,0,0,0.0254,0.0224,0.0101,0.0022,-0.0076,-0.0072,-0.0038,-0.0035,0.0058,0.004,0.0107,0.0112,0.0254,0.035,0.0402,0.0413,0.0317,0,0]}]]